Location: Akgöl Batakl???
(38.9482°N, 31.8837°E)
Time: 19:48:08
(UTC+00:00)

Cosmos 1500 Rocket - Pass Details

Date: 08 May 2026
Orbit: 596 x 623 km, 82.5° (Epoch: 6 June)

Event Time Altitude Azimuth Distance (km) Brightness Sun altitude
Rises 23:43:23 0° 356° (N) 2,911 7.8 -27.7°
Reaches altitude 10° 23:45:40 10° 0° (N) 2,000 6.9 -27.5°
Enters shadow 23:49:40 58° 55° (NE) 727 4.0 -27.1°
